Location: Monfort
(47.1967°N, 0.2115°W)
Time: 09:08:43
(UTC+00:00)

BREEZE-M DEB (TANK) - Pass Details

Date: 24 October 2020
Orbit: 320 x 18719 km, 52.5° (Epoch: 27 November)

Event Time Altitude Azimuth Distance (km) Brightness Sun altitude
Rises 17:20:04 0° 252° (WSW) 2,310 8.8 -4.7°
Reaches altitude 10° 17:21:23 10° 255° (WSW) 1,671 7.3 -4.9°
Maximum altitude 17:24:32 73° 341° (NNW) 843 3.8 -5.4°
Drops below altitude 10° 17:35:16 10° 67° (ENE) 5,392 7.2 -7.2°
Enters shadow 17:37:32 - 68° (ENE) 6,346 7.5 -7.6°
